www.pogodaiklimat.ru

Погода и климат >> Архив погоды >> Россия >> Ненецкий АО >> Мыс Константиновский


ПОГОДА на Мысе Константиновском

  • Прогноз погоды на Мысе Константиновском
  • Монитор погоды на Мысе Константиновском

АРХИВ ПОГОДЫ на Мысе Константиновском

Время (UTC), дата Ветер
(напр.,м/с)
 
Видим.   Явления Облачность Т
(С)
Тd
(С)
f
(%)
Тe
(С)
Тes
(С)
Комфортность P
(гПа)
Po
(гПа)
Тmin
(С)
Tmax
(С)
R
(мм)
R24
(мм)
S
(см)
21 18.05 СВ 10-12
{13}
10 км 10/10 300 м
[Sc]
-0.2 -1.1 94 -9 -9 1012.5 1011.7
00 19.05 СВ 8-12
{12}
10 км 10/10 300 м
[Sc]
-0.7 -1.7 93 -9 -9 1014.0 1013.2
03 19.05 СВ 9-12
{13}
10 км 10/10 300 м
[Sc]
-0.6 -1.1 96 -9 -9 1015.9 1015.1 -0.7 13
06 19.05 СВ 5
{12}
10 км 10/10 300 м
[Sc]
-0.1 -0.9 94 -6 -6 1016.7 1015.9
09 19.05 СВ 6 10 км 4/4 600 м
[Sc]
+0.6 -0.5 92 -6 -4 1017.4 1016.6
12 19.05 СВ 6 10 км 6/6 300 м
[Sc]
+0.5 -0.9 90 -6 -5 1018.5 1017.7
15 19.05 СВ 4 20 км 1/1 600 м
[Sc]
-0.1 -1.0 94 -6 -5 1018.9 1018.1 +0.8
18 19.05 СВ 5 20 км ясно -1.1 -2.3 92 -8 -8 1018.3 1017.5
21 19.05 СВ 5 20 км 3/3 600 м
[Sc]
-2.0 -3.3 91 -9 -9 1018.1 1017.3
00 20.05 СВ 6 20 км 9/9 600 м
[Sc]
-2.0 -3.3 91 -9 -9 1018.4 1017.6
03 20.05 СВ 7
{10}
20 км 9/9 600 м
[Sc]
-2.1 -4.0 87 -10 -10 1018.9 1018.1 -2.5 12
06 20.05 СВ 6 10 км 9/9 600 м
[Sc]
-2.1 -4.0 87 -9 -9 1019.5 1018.7
09 20.05 СВ 5
{10}
10 км 9/9 600 м
[Sc]
-1.8 -3.6 87 -8 -8 1020.3 1019.5
12 20.05 С 6 10 км 10/9 300 м
[Sc]
-1.8 -3.3 89 -9 -9 1021.1 1020.3
15 20.05 С 6 10 км 10/10 300 м
[Sc]
-2.4 -4.0 89 -10 -10 1021.0 1020.2 -1.6
18 20.05 С 6 10 км 10/10 600 м
[Sc]
-2.5 -3.8 91 -10 -10 1020.5 1019.7
21 20.05 С 5 10 км 10/6 600 м
[Sc]
-3.0 -4.3 91 -10 -10 1020.0 1019.2
00 21.05 СВ 4 10 км 10/10 600 м
[Sc]
-3.2 -4.6 90 -9 -9 1019.8 1019.0
03 21.05 С 5 10 км 10/10 600 м
[Sc]
-2.9 -4.6 88 -10 -10 1019.8 1019.0 -3.4 11
06 21.05 С 4 10 км 10/10 300 м
[Sc]
-2.4 -4.0 89 -8 -8 1019.8 1019.0
09 21.05 С 4 10 км 9/9 600 м
[Sc]
-1.9 -4.0 86 -8 -7 1019.5 1018.7
12 21.05 С 3 10 км 8/8 300 м
[Sc]
-1.5 -3.8 84 -6 -5 1019.5 1018.7
15 21.05 С 6 10 км 9/9 600 м
[Sc]
-2.1 -4.3 85 -9 -9 1019.1 1018.3 -1.2
18 21.05 З 1 10 км 9/9 600 м
[Sc]
-2.0 -3.5 89 -4 -4 1017.9 1017.1
21 21.05 СЗ 4 10 км 10/10 300 м
[Sc]
-1.2 -2.2 93 -7 -7 1016.4 1015.6
00 22.05 З 5 4000 м слаб. снег 10/10 300 м
[Frnb Ns]
-1.6 -2.4 94 -8 -8 1014.8 1014.0
03 22.05 СВ 3 10 км {снег} 10/10 300 м
[Sc]
-1.2 -1.9 95 -6 -6 1014.2 1013.4 -2.3 0.3 11
06 22.05 С 2 10 км {снег} 10/10 300 м
[Sc]
-0.5 -4.6 74 -4 -4 1013.5 1012.7
09 22.05 С 1 10 км 9/9 600 м
[Sc]
-0.3 -3.6 78 -2 -1 1012.7 1011.9
12 22.05 З 2 10 км 9/9 600 м
[Sc]
-0.3 -1.8 90 -4 -3 1011.6 1010.8
15 22.05 З 1 4000 м слаб. ливневой снег 9/9 300 м
[Cb cap]
+0.1 -0.8 94 -2 -2 1010.3 1009.5 +0.4 0.3
18 22.05 Ю 1 4000 м слаб. ливневой снег 9/9 300 м
[Cb cap]
-0.7 -1.4 95 -3 -3 1008.8 1008.0
21 22.05 штиль 0 4000 м слаб. снег 10/10 300 м
[Frnb Ns]
-1.5 -2.0 96 -3 -3 1007.4 1006.6
00 23.05 С 1 4000 м слаб. снег 10/10 300 м
[Frnb Ns]
-1.4 -1.9 96 -4 -4 1006.1 1005.3
03 23.05 СВ 5 4000 м слаб. снег 10/10 300 м
[Frnb Ns]
-1.5 -2.0 96 -8 -8 1005.4 1004.6 -1.7 3 14
06 23.05 СВ 5 10 км {снег} 9/9 300 м
[Sc]
-2.1 -3.3 91 -9 -8 1005.5 1004.7 -2.6
09 23.05 С 7 10 км 8/8 300 м
[Sc]
-1.9 -4.0 86 -10 -9 1006.1 1005.3
12 23.05 СВ 5 10 км 8/6 600 м
[Sc Ac trans]
-1.5 -3.8 84 -8 -7 1006.5 1005.7
15 23.05 С 7 10 км 10/10 300 м
[Sc]
-1.9 -5.0 79 -9 -9 1006.5 1005.7 -1.4 0.0
18 23.05 С 3 10 км 9/9 300 м
[Sc]
-2.1 -5.3 79 -7 -7 1006.3 1005.5
21 23.05 В 1 10 км 10/10 300 м
[Sc]
-2.7 -4.3 89 -5 -5 1005.7 1004.9
00 24.05 С 5 10 км 10/10 300 м
[Cb cap]
-2.1 -4.3 85 -9 -9 1005.0 1004.2
03 24.05 С 6 10 км 10/10 300 м
[Sc]
-2.5 -3.8 91 -10 -10 1004.8 1004.0 -2.9 13
06 24.05 СВ 7 4000 м слаб. ливневой снег 9/9 300 м
[Cb cap]
-2.3 -3.2 94 -10 -10 1004.5 1003.7
09 24.05 С 8-10
{12}
4000 м слаб. ливневой снег 9/9 300 м
[Cb cap]
-1.8 -3.6 87 -10 -10 1006.1 1005.3
12 24.05 С 10-12
{14}
200 м слаб. ливневой снег {метель} 9/9 300 м
[Cb cap]
-1.1 -3.4 84 -10 -10 1007.0 1006.2
15 24.05 С 11-13
{15}
10 км в посл. час ливневой снег {метель} 9/9 300 м
[Cb cap]
-2.1 -4.6 83 -11 -11 1007.6 1006.8 -1.0 0.3
18 24.05 С 12-15
{15}
10 км {ливн. осадки, метель} 10/10 300 м
[Sc]
-1.8 -5.2 78 -11 -11 1007.8 1007.0
21 24.05 С 12-14
{16}
10 км 10/10 300 м
[Sc]
-2.0 -5.5 77 -11 -11 1007.8 1007.0
00 25.05 С 10-14
{15}
10 км 8/8 600 м
[Sc]
-2.5 -5.1 82 -11 -11 1008.4 1007.6
03 25.05 С 9-12
{14}
10 км 8/8 600 м
[Sc]
-1.5 -4.2 82 -10 -10 1008.6 1007.8 -2.5 13
06 25.05 СЗ 8-11
{12}
10 км 6/6 600 м
[Sc]
-0.8 -3.3 83 -8 -8 1009.2 1008.4
09 25.05 СЗ 8-10
{11}
10 км 8/5 600 м
[Sc Cs]
-0.2 -2.2 86 -8 -7 1009.9 1009.1
12 25.05 СЗ 6 10 км 6/6 600 м
[Sc]
-0.3 -2.4 86 -7 -6 1011.0 1010.2 0.0
15 25.05 СЗ 6 20 км 6/4 600 м
[Sc Ac trans]
-0.7 -2.6 87 -8 -7 1011.6 1010.8 0.0
18 25.05 СЗ 4 20 км 1/1 600 м
[Sc]
-1.8 -2.9 92 -8 -8 1011.7 1010.9

 

Местоположение метеостанции Мыс Константиновский (Ненецкий АО, Россия): широта 68.55 долгота 55.50 высота над уровнем моря 7 м.

В архиве по умолчанию представлена погода на Мысе Константиновском за последнюю неделю. Архивные данные за месяц целиком и за предыдущие месяцы, начиная с января 2011 года, Вы можете получить, выбрав интересующий диапазон дат из раскрывающегося списка и нажав кнопку "Ввод!".


*Определитесь, кто Вы:
робот инопланетянин человек

Внимание! Время в таблицах - всемирное. Для получения местного времени необходимо прибавить поправку, которая равна 3 ч.

Смотрите также архив погоды в соседних городах и на ближайших метеорологических станциях:

Погода в Ходоварихе (Ненецкий АО, Россия) (82 км)
Погода в Варандее (Ненецкий АО, Россия) (106 км)
Погода в Нарьян-Маре (Ненецкий АО, Россия) (145 км)
Погода в Хорей-Вере (Ненецкий АО, Россия) (163 км)
Погода в Сенгейском Шаре (Ненецкий АО, Россия) (173 км)
Погода на Мысе Белый Нос (Ненецкий АО, Россия) (220 км)
Погода в Коткино (Ненецкий АО, Россия) (250 км)
Погода в Бугрино (Ненецкий АО, Россия) (251 км)
Погода в Имени Федорова (Ненецкий АО, Россия) (253 км)
Погода в Харуте (Ненецкий АО, Россия) (254 км)

Пояснения к столбцам:

Ветер - указаны скорость ветра в м/с - средняя за 10 мин, порывы в срок и между сроками (в фигурных скобках) и направление, откуда дует ветер: С - северный, СВ - северо-восточный, В - восточный, ЮВ - юго-восточный, Ю - южный, ЮЗ - юго-западный, З - западный, СЗ - северо-западный.
Видимость - горизонтальная дальность видимости в метрах или километрах. При видимости от 1 до 10 км при отсутствии осадков обычно наблюдается дымка, при ухудшении видимости до 1 км и менее - туман. В сухую погоду видимость может ухудшаться дымом, пылью или мглою.
Явления - указаны атмосферные явления, наблюдавшиеся в срок или в последний час перед сроком; фигурными скобками обозначены явления, наблюдавшиеся между сроками (за 1-3 часа до срока); квадратными скобками обозначены град или гололедные отложения с указанием их диаметра в мм.
Облачность - указаны через наклонную черту общая и нижняя облачность в баллах и высота нижней границы облаков в метрах; квадратными скобками обозначены формы облаков: Ci - перистые, Cs - перисто-слоистые, Cc - перисто-кучевые, Ac - высококучевые, As - высокослоистые, Sc - слоисто-кучевые, Ns - слоисто-дождевые, Cu - кучевые, Cb - кучево-дождевые. Подробнее классификацию облаков см. в Атласе облаков (PDF).
T - Температура воздуха - температура, измеренная на высоте 2 м над землей.
Td - Температура точки росы - температура, при понижении до которой содержащийся в воздухе водяной пар достигнет насыщения.
f - Относительная влажность воздуха - влажноcть воздуха, измеренная на высоте 2 м над землей.
Te - Эффективная температура - температура, которую ощущает одетый по сезону человек в тени. Характеристика душности погоды. При расчете учитывается влияние влажности воздуха и скорости ветра на теплоощущения человека.
Tes - Эффективная температура на солнце - температура, которую ощущает человек, с поправкой на солнечный нагрев. Характеристика знойности погоды. Зависит от высоты солнца над горизонтом, облачности и скорости ветра. Ночью, в пасмурную погоду, а также при ветре 12 м/с и более поправка равна нулю.
P - Атмосферное давление - приведенное к уровню моря атмосферное давление.
Po - Атмосферное давление - измеренное на уровне метеостанции атмосферное давление.
Tmin - Минимальная температура - минимум температуры воздуха на высоте 2 м над землей.
Tmax - Максимальная температура - максимум температуры воздуха на высоте 2 м над землей.
R - Количество осадков - Количество выпавших осадков за период времени, мм. При наведении курсора мыши на число - период времени, за который выпало указанное количество осадков.
R24 - Количество осадков - Количество выпавших осадков за 24 часа, мм.
S - Снежный покров - Высота снежного покрова, см. При наведении курсора мыши на число - состояние снежного покрова и степень покрытия местности в баллах.